Dauntless Aviation
Greetings, Guest! To participate, [sign up for a free account] or [log in]
Airports North America Netherlands Antilles
TNCC
CUR

Hato

Willemstad, NETHERLANDS ANTILLES

Airport Info
Edit

Location

Latitude / Longitude: 12°11'20"N / 68°57'35"W
  12°11.334'N / 68°57.588'W
  12.1889 / -68.9598

Nearby radio navigation aids

HTO HATO TACAN on field.
PJG CURACAO VOR/DME. 113.7° 3.0nm from PJG to field.

Runway Information

Runway 11 /29

Dimensions: 11187 x 197 ft.
Surface: ASP
 
Runway 11
Runway 29
Latitude: 12.190411 12.185969
Longitude: -68.967544 -68.9443
Elevation: 25 ft. 25 ft.
Runway true heading: 102.1 282.1
 
Satellite photo at:
Airport distance calculator
From:
Weather Reports

METAR

TNCC

TNCC 021100Z 11011KT 9999 FEW016 28/24 Q1012 NOSIG
TNCB
39.8nm E
TNCB 021100Z AUTO 07012KT 9999 SCT016/// 28/24 Q1012 NOSIG

TAF

TNCC
TAF TNCC 020400Z 0206/0306 10013KT 9999 SCT018 PROB30 TEMPO 0206/0214 8000 SHRA BKN015
TNCB
39.8nm E
TAF TNCB 020400Z 0206/0306 09015KT 9999 SCT018 PROB30 TEMPO 0206/0214 8000 SHRA BKN015
Safelog

 

Dauntless Aviation

© 2007-2014 Dauntless Aviation, all rights reserved
Information provided via PilotNav comes from a variety of official and unofficial data sources. As errors are possible, do not use PilotNav for primary flight planning purposes. Verify any information that you receive via PilotNav with current and canonical charts and other official documents. The material in this database is subject to database copyrights held by Dauntless Aviation and may not be copied without the express permission of Dauntless Aviation - licenses for use of part of all of this data are available for purchase; enquire via the Dauntless Aviation helpdesk. A number of mechanisms and markers exist in the database to protect against and identify infringement / copyright. Automated queries against this website are stictly prohibited, and all activity is logged and analyzed.